User: anonymous   Login
Location: Newark
(51.5033°N, 0.1199°W)
Time: 08:24:25
(UTC+00:00)
Language:

PicSat - Orbit

View from above orbital plane
View from above orbital plane
View from above satellite
View from above satellite

Ground track
Ground track

The orbit data is extracted from the following two-line orbital elements,

1 43131U 18004W   19262.76870574 +.00001130 +00000-0 +49140-4 0  9996
2 43131 097.4816 330.6923 0007778 290.0493 069.9907 15.24337719093690
Epoch (UTC): 19 September 2019 18:26:56
Eccentricity: 0.0007778
inclination: 97.4816°
perigee height: 487 km
apogee height: 498 km
right ascension of ascending node: 330.6923°
argument of perigee: 290.0493°
revolutions per day: 15.24337719
mean anomaly at epoch: 69.9907°
orbit number at epoch: 9369

The dashed part of the orbit path shows where the satellite is in the earth's shadow,  

DLR